Location: Peebles
(55.6410°N, 3.1709°W)
Time: 05:18:03
(UTC+01:00)

ISS - Visible Passes

Search period start: 19 July 2018 00:00
Search period end: 29 July 2018 00:00
Orbit: 402 x 408 km, 51.6° (Epoch: 19 July)

Date Brightness Start Highest point End Pass type
(mag) Time Alt. Az. Time Alt. Az. Time Alt. Az.
19 Jul -2.9 00:30:34 16° SSW 00:32:34 28° SSE 00:35:27 10° E visible
19 Jul -3.4 02:05:33 10° WSW 02:08:40 41° S 02:11:49 10° ESE visible
19 Jul -2.8 03:41:54 10° W 03:44:45 27° SSW 03:47:35 10° SE visible
19 Jul -2.6 23:38:02 10° SSW 23:40:39 22° SSE 23:43:16 10° ESE visible
20 Jul -3.4 01:13:33 10° WSW 01:16:40 40° S 01:19:47 10° ESE visible
20 Jul -3.1 02:49:47 10° W 02:52:47 33° SSW 02:55:47 10° SE visible
20 Jul -2.2 22:46:36 10° S 22:48:45 16° SSE 22:50:54 10° ESE visible
21 Jul -3.3 00:21:36 10° WSW 00:24:39 36° S 00:27:43 10° E visible
21 Jul -3.4 01:57:41 10° WSW 02:00:47 38° S 02:03:52 10° ESE visible
21 Jul -2.4 03:34:21 10° WSW 03:36:44 19° SSW 03:39:07 10° SSE visible
21 Jul -3.0 23:29:43 10° SW 23:32:39 30° SSE 23:35:36 10° E visible
22 Jul -3.5 01:05:38 10° WSW 01:08:46 41° S 01:11:53 10° ESE visible
22 Jul -2.7 02:42:04 10° W 02:44:48 24° SSW 02:47:33 10° SSE visible
22 Jul -2.7 22:37:57 10° SSW 22:40:40 24° SSE 22:43:24 10° ESE visible
23 Jul -3.4 00:13:36 10° WSW 00:16:43 41° S 00:19:50 10° ESE visible
23 Jul -3.1 01:49:52 10° W 01:52:49 30° SSW 01:53:17 29° S visible
23 Jul -3.3 23:21:35 10° WSW 23:24:40 38° S 23:27:45 10° ESE visible
24 Jul -3.3 00:57:44 10° W 01:00:48 36° S 01:01:39 30° SSE visible
24 Jul -3.0 22:29:38 10° SW 22:32:37 32° SSE 22:35:37 10° E visible
25 Jul -3.4 00:05:37 10° WSW 00:08:44 40° S 00:10:39 19° SE visible
25 Jul -1.9 01:42:07 10° WSW 01:43:16 16° WSW 01:43:16 16° WSW visible
25 Jul -3.4 23:13:32 10° WSW 23:16:39 41° S 23:19:47 10° ESE visible
26 Jul -2.8 00:49:52 10° W 00:52:29 28° SSW 00:52:29 28° SSW visible
26 Jul -3.3 22:21:28 10° WSW 22:24:34 39° S 22:27:40 10° ESE visible
26 Jul -3.1 23:57:40 10° W 00:00:41 34° SSW 00:01:47 26° SSE visible
27 Jul -3.3 23:05:31 10° WSW 23:08:36 39° S 23:11:08 14° ESE visible
28 Jul -2.0 00:42:05 10° WSW 00:43:45 18° SW 00:43:45 18° SW visible
28 Jul -3.3 22:13:22 10° WSW 22:16:29 41° S 22:19:36 10° ESE visible
28 Jul -2.7 23:49:45 10° W 23:52:33 26° SSW 23:53:08 24° S visible
